AEE454 LGSR-LGAV

Flight info

Callsign AEE454
Flight time N/A
Altitude 18000
Route NETIS M601 MIL Y144 BADEL
Aircraft A320/M-SDE3FGHIRWY/LB1

Departure

Time 2026-04-24 22:06
Airport Santorini International Airport (LGSR)

Arrival

Time N/A
Airport Athens Eleftherios Venizelos International Airport (LGAV)
Time Latitude Longitude Altitude Speed Heading
2026-04-24 21:50 36.40303 25.47395 89 ft 0 kts 249°
2026-04-24 21:56 36.40303 25.47396 90 ft 1 kts 249°
2026-04-24 21:57 36.40311 25.47425 92 ft 4 kts 252°
2026-04-24 21:57 36.40321 25.47455 90 ft 4 kts 227°
2026-04-24 21:57 36.40332 25.47463 90 ft 0 kts 159°
2026-04-24 22:00 36.40328 25.47465 90 ft 3 kts 159°
2026-04-24 22:01 36.40297 25.47480 89 ft 6 kts 158°
2026-04-24 22:01 36.40280 25.47533 89 ft 12 kts 61°
2026-04-24 22:01 36.40252 25.47603 91 ft 13 kts 159°
2026-04-24 22:01 36.40103 25.47662 88 ft 29 kts 161°
2026-04-24 22:02 36.39881 25.47768 85 ft 39 kts 161°
2026-04-24 22:02 36.39611 25.47894 75 ft 44 kts 158°
2026-04-24 22:02 36.39316 25.48032 68 ft 47 kts 159°
2026-04-24 22:02 36.39079 25.48145 59 ft 23 kts 159°
2026-04-24 22:03 36.39011 25.48238 56 ft 7 kts 60°
2026-04-24 22:03 36.39012 25.48240 56 ft 0 kts 56°
2026-04-24 22:04 36.39023 25.48271 55 ft 8 kts 66°
2026-04-24 22:04 36.39064 25.48310 57 ft 8 kts
2026-04-24 22:04 36.39106 25.48299 56 ft 0 kts 341°
2026-04-24 22:05 36.39111 25.48297 56 ft 1 kts 341°
2026-04-24 22:05 36.39112 25.48296 56 ft 0 kts 341°
2026-04-24 22:05 36.39113 25.48296 56 ft 0 kts 341°
2026-04-24 22:05 36.39148 25.48280 56 ft 17 kts 339°
2026-04-24 22:06 36.39486 25.48121 69 ft 93 kts 340°
2026-04-24 22:06 36.40293 25.47749 254 ft 135 kts 341°
2026-04-24 22:06 36.41136 25.47433 1003 ft 123 kts 336°
2026-04-24 22:06 36.41990 25.47141 1369 ft 139 kts 336°
2026-04-24 22:07 36.43003 25.46784 1727 ft 163 kts 335°
2026-04-24 22:07 36.44143 25.46445 2483 ft 171 kts 356°
2026-04-24 22:07 36.45358 25.46192 3228 ft 188 kts 352°
2026-04-24 22:07 36.46716 25.45826 3823 ft 213 kts 349°
2026-04-24 22:08 36.48324 25.45365 3990 ft 263 kts 349°
2026-04-24 22:08 36.50267 25.44795 4017 ft 308 kts 348°
2026-04-24 22:08 36.52368 25.43760 4164 ft 342 kts 326°
2026-04-24 22:08 36.53882 25.41490 5145 ft 343 kts 295°
2026-04-24 22:09 36.54321 25.38658 6580 ft 330 kts 268°
2026-04-24 22:09 36.53959 25.35920 8137 ft 312 kts 253°
2026-04-24 22:09 36.53349 25.33426 9852 ft 292 kts 250°
2026-04-24 22:09 36.52862 25.31055 11408 ft 274 kts 261°
2026-04-24 22:10 36.52695 25.28730 12657 ft 269 kts 267°
2026-04-24 22:10 36.52794 25.26378 13404 ft 283 kts 285°
2026-04-24 22:10 36.53560 25.24040 13814 ft 304 kts 298°
2026-04-24 22:10 36.54545 25.21586 14198 ft 329 kts 298°
2026-04-24 22:11 36.55622 25.18953 14560 ft 354 kts 298°
2026-04-24 22:11 36.56777 25.16134 14882 ft 378 kts 298°
2026-04-24 22:11 36.57988 25.13155 15463 ft 392 kts 298°
2026-04-24 22:11 36.59208 25.10138 16294 ft 398 kts 298°
2026-04-24 22:12 36.60479 25.07004 17250 ft 403 kts 298°
2026-04-24 22:12 36.61765 25.03878 17754 ft 420 kts 298°
2026-04-24 22:12 36.63128 25.00550 17953 ft 442 kts 298°
2026-04-24 22:12 36.64578 24.97065 17981 ft 465 kts 298°
2026-04-24 22:13 36.66064 24.93470 18885 ft 455 kts 298°
2026-04-24 22:13 36.67528 24.89962 19372 ft 466 kts 298°
2026-04-24 22:13 36.69066 24.86318 19667 ft 479 kts 298°
2026-04-24 22:13 36.70611 24.82660 20760 ft 475 kts 298°
2026-04-24 22:14 36.72183 24.78984 20894 ft 481 kts 298°
2026-04-24 22:14 36.73084 24.76890 20898 ft 482 kts 298°